| time (UTC) | temp C | wind direction | speed KPH | gust KPH | rain 1hr cm | rain 24hr cm | rain mn cm | humidity % | barometer mb |
| 20260504120138 | 15 | 229 | 0.0 | 6.4 | 0.00 | 0.08 | 0.05 | 82 | 1007.1 |
| 20260504081526 | 16 | 58 | 0.0 | 3.2 | 0.00 | 0.08 | 0.05 | 77 | 1007.6 |
| 20260504044555 | 17 | 236 | 1.6 | 8.0 | 0.03 | 0.03 | 0.03 | 67 | 1007.4 |
| 20260504043058 | 17 | 200 | 0.0 | 6.4 | 0.03 | 0.03 | 0.03 | 68 | 1007.0 |
| 20260504041549 | 18 | 177 | 1.6 | 8.0 | 0.00 | 0.00 | 0.00 | 58 | 1008.1 |
| 20260504040100 | 18 | 190 | 3.2 | 12.9 | 0.00 | 0.00 | 0.00 | 55 | 1007.8 |
| 20260504034547 | 18 | 197 | 3.2 | 11.3 | 0.00 | 0.00 | 0.00 | 54 | 1008.2 |
| 20260504033049 | 19 | 207 | 1.6 | 12.9 | 0.00 | 0.00 | 0.00 | 53 | 1008.4 |
| 20260504031555 | 20 | 160 | 3.2 | 9.7 | 0.00 | 0.00 | 0.00 | 52 | 1008.5 |
| 20260504030045 | 19 | 204 | 1.6 | 4.8 | 0.00 | 0.00 | 0.00 | 53 | 1008.6 |
| 20260504024545 | 19 | 170 | 0.0 | 4.8 | 0.00 | 0.00 | 0.00 | 54 | 1008.5 |
| 20260504023043 | 19 | 212 | 0.0 | 4.8 | 0.00 | 0.00 | 0.00 | 54 | 1008.5 |
| 20260504021543 | 19 | 204 | 0.0 | 3.2 | 0.00 | 0.00 | 0.00 | 54 | 1008.4 |
| 20260504020050 | 20 | 214 | 0.0 | 1.6 | 0.00 | 0.00 | 0.00 | 52 | 1008.1 |
| 20260504014544 | 20 | 107 | 0.0 | 4.8 | 0.00 | 0.00 | 0.00 | 52 | 1008.0 |
| 20260504013043 | 20 | 228 | 0.0 | 3.2 | 0.00 | 0.00 | 0.00 | 50 | 1007.9 |
| 20260504011542 | 21 | 266 | 0.0 | 1.6 | 0.00 | 0.00 | 0.00 | 48 | 1007.8 |
| 20260504010040 | 21 | 172 | 0.0 | 3.2 | 0.00 | 0.00 | 0.00 | 46 | 1007.8 |
| 20260504004539 | 22 | 213 | 0.0 | 4.8 | 0.00 | 0.00 | 0.00 | 45 | 1007.8 |
| 20260504003038 | 22 | 213 | 0.0 | 4.8 | 0.00 | 0.00 | 0.00 | 45 | 1007.9 |
| 20260504001547 | 22 | 221 | 0.0 | 6.4 | 0.00 | 0.00 | 0.00 | 43 | 1007.9 |
| 20260504000036 | 23 | 281 | 0.0 | 9.7 | 0.00 | 0.00 | 0.00 | 42 | 1007.9 |
| 20260503234549 | 23 | 197 | 1.6 | 6.4 | 0.00 | 0.00 | 0.00 | 41 | 1007.9 |
| 20260503233038 | 23 | 217 | 1.6 | 6.4 | 0.00 | 0.00 | 0.00 | 40 | 1008.1 |
| 20260503231534 | 24 | 231 | 3.2 | 12.9 | 0.00 | 0.00 | 0.00 | 39 | 1008.3 |
| 20260503230028 | 25 | 277 | 1.6 | 9.7 | 0.00 | 0.00 | 0.00 | 39 | 1008.4 |
| 20260503224526 | 24 | 252 | 6.4 | 17.7 | 0.00 | 0.00 | 0.00 | 38 | 1008.6 |
| 20260503223023 | 24 | 212 | 6.4 | 20.9 | 0.00 | 0.00 | 0.00 | 36 | 1008.6 |
| 20260503221527 | 24 | 236 | 4.8 | 17.7 | 0.00 | 0.00 | 0.00 | 38 | 1008.8 |
| 20260503220020 | 24 | 238 | 6.4 | 14.5 | 0.00 | 0.00 | 0.00 | 38 | 1008.9 |
| 20260503214517 | 24 | 173 | 6.4 | 19.3 | 0.00 | 0.00 | 0.00 | 38 | 1009.2 |
| 20260503213014 | 23 | 263 | 6.4 | 17.7 | 0.00 | 0.00 | 0.00 | 38 | 1009.4 |
| 20260503211512 | 23 | 204 | 6.4 | 24.1 | 0.00 | 0.00 | 0.00 | 40 | 1009.4 |
| 20260503210010 | 23 | 218 | 9.7 | 24.1 | 0.00 | 0.00 | 0.00 | 38 | 1009.6 |
| 20260503204507 | 23 | 203 | 4.8 | 16.1 | 0.00 | 0.00 | 0.00 | 39 | 1009.9 |
| 20260503203004 | 23 | 201 | 6.4 | 14.5 | 0.00 | 0.00 | 0.00 | 40 | 1010.4 |
| 20260503201601 | 22 | 200 | 6.4 | 16.1 | 0.00 | 0.00 | 0.00 | 41 | 1010.8 |
| 20260503200058 | 22 | 170 | 3.2 | 22.5 | 0.00 | 0.00 | 0.00 | 44 | 1011.2 |
| 20260503194559 | 22 | 201 | 4.8 | 17.7 | 0.00 | 0.00 | 0.00 | 41 | 1011.5 |
| 20260503193050 | 22 | 208 | 4.8 | 17.7 | 0.00 | 0.00 | 0.00 | 42 | 1011.9 |
| 20260503191552 | 21 | 184 | 6.4 | 20.9 | 0.00 | 0.00 | 0.00 | 40 | 1012.4 |
| 20260503190043 | 21 | 207 | 4.8 | 20.9 | 0.00 | 0.00 | 0.00 | 43 | 1012.7 |
| 20260503184540 | 21 | 225 | 3.2 | 14.5 | 0.00 | 0.00 | 0.00 | 41 | 1013.2 |
| 20260503183036 | 20 | 198 | 3.2 | 17.7 | 0.00 | 0.00 | 0.00 | 45 | 1013.6 |
| 20260503181534 | 20 | 165 | 4.8 | 14.5 | 0.00 | 0.00 | 0.00 | 44 | 1014.2 |
| 20260503180030 | 20 | 240 | 3.2 | 20.9 | 0.00 | 0.00 | 0.00 | 46 | 1014.6 |
| 20260503174527 | 19 | 169 | 6.4 | 24.1 | 0.00 | 0.00 | 0.00 | 45 | 1015.0 |
| 20260503173028 | 19 | 219 | 8.0 | 25.7 | 0.00 | 0.00 | 0.00 | 45 | 1015.2 |
| 20260503171519 | 18 | 187 | 6.4 | 17.7 | 0.00 | 0.00 | 0.00 | 49 | 1015.6 |